• Join FlightAware (Why Join?)
  • Login
  • US Flag 
08:14AM EDT


 

Airport Tracker/Info


-or-


 

Live Flight TrackerFlight Track Log ✈ JBU1329 ✈ 23-Apr-2013 ✈ KBOS - KBWI

Flight Track Log - Related Links

Times and Time Zones

All times are in EDT time to prevent confusion due to time zone crossing. See the JBU1329 flight status page for this flight to view local times or setup timezone preferences in your user account.

Time Position Orientation Groundspeed Altitude Reporting Facility
EDT Latitude Longitude Course Direction KTS MPH feet Rate Location/Type
08:17AM 42.3667 -70.9833 265° West 133 153 900  Level KA90
08:18AM 42.3667 -70.9333 90° East 173 199 2,400 2,220 Climbing KA90
08:19AM 42.3833 -70.8500 75° East 226 260 5,200 2,820 Climbing KA90
08:20AM 42.1376 -71.3222 258° West  Level FlightAware Approximate
08:20AM 42.3833 -70.7500 90° East 273 314 8,100  Level KA90
08:21AM 42.1166 -71.4003 265° West  Level FlightAware Approximate
08:21AM 42.3167 -70.7167 160° South 276 318 11,500  Level KA90
08:22AM 42.1108 -71.4834 265° West  Level FlightAware Approximate
08:22AM 42.2689 -70.7400 200° South 302 348 12,700  Level Boston Center
08:23AM 42.2100 -70.8536 235° Southwest 297 342 15,500 2,640 Climbing Boston Center
08:24AM 42.1908 -70.9772 258° West 311 358 18,000 2,100 Climbing Boston Center
08:25AM 42.1778 -71.1036 262° West 344 396 19,800 2,100 Climbing Boston Center
08:26AM 42.1586 -71.2386 259° West 365 420 22,200 2,220 Climbing Boston Center
08:27AM 42.1392 -71.3789 259° West 377 434 24,300 1,800 Climbing Boston Center
08:28AM 42.1256 -71.4911 261° West 382 440 25,800 1,800 Climbing Boston Center
08:29AM 42.0956 -71.6594 257° West 382 440 28,000 1,980 Climbing Boston Center
08:30AM 42.0733 -71.7997 258° West 388 447 29,800 1,800 Climbing Boston Center
08:31AM 42.0533 -71.9397 259° West 393 452 31,600 1,080 Climbing Boston Center
08:32AM 42.0331 -72.0794 259° West 393 452 32,000 180 Climbing Boston Center
08:33AM 42.0106 -72.2222 258° West 393 452 32,000  Level Boston Center
08:34AM 41.9897 -72.3675 259° West 393 452 32,000  Level Boston Center
08:35AM 41.9439 -72.4986 245° Southwest 382 440 32,000  Level Boston Center
08:36AM 41.8792 -72.6103 232° Southwest 382 440 32,000  Level Boston Center
08:37AM 41.8167 -72.7103 230° Southwest 376 433 32,000  Level Boston Center
08:38AM 41.7433 -72.8381 232° Southwest 387 445 32,000  Level Boston Center
08:39AM 41.6739 -72.9458 229° Southwest 387 445 32,000  Level Boston Center
08:40AM 41.6089 -73.0536 231° Southwest 387 445 32,000 -420 Level Boston Center
08:41AM 41.5436 -73.1611 231° Southwest 387 445 31,200 -900 Descending Boston Center
08:42AM 41.4314 -73.3419 230° Southwest 378 435 29,500 -960 Descending New York Center
08:43AM 41.3644 -73.4497 230° Southwest 378 435 28,500 -780 Descending New York Center
08:44AM 41.2997 -73.5550 231° Southwest 378 435 28,000 -300 Descending New York Center
08:45AM 41.2367 -73.6628 232° Southwest 378 435 28,000  Level New York Center
08:46AM 41.1714 -73.7700 231° Southwest 378 435 28,000 -120 Level New York Center
08:47AM 41.1083 -73.8775 232° Southwest 378 435 27,800 -660 Descending New York Center
08:48AM 41.0450 -73.9817 231° Southwest 378 435 26,800 -1,020 Descending New York Center
08:49AM 40.9817 -74.0914 233° Southwest 378 435 25,800 -1,020 Descending New York Center
08:50AM 40.9139 -74.1981 230° Southwest 378 435 24,800 -960 Descending New York Center
08:51AM 40.8483 -74.3044 231° Southwest 378 435 24,000 -420 Descending New York Center
08:52AM 40.7847 -74.4106 232° Southwest 378 435 24,000  Level New York Center
08:53AM 40.7208 -74.5167 232° Southwest 383 441 24,000  Level New York Center
08:54AM 40.6569 -74.6253 232° Southwest 383 441 24,000  Level New York Center
08:55AM 40.5911 -74.7283 230° Southwest 383 441 24,000 -480 Level New York Center
08:56AM 40.5231 -74.8308 229° Southwest 383 441 23,100 -1,080 Descending New York Center
08:57AM 40.4531 -74.9275 226° Southwest 383 441 21,900 -1,200 Descending New York Center
08:58AM 40.3828 -75.0269 227° Southwest 377 434 20,700 -1,200 Descending New York Center
08:59AM 40.3147 -75.1233 227° Southwest 377 434 19,500 -1,260 Descending New York Center
09:00AM 40.2442 -75.2222 227° Southwest 377 434 18,200 -780 Descending New York Center
09:01AM 40.1650 -75.3314 227° Southwest 377 434 18,000 -120 Descending New York Center
09:02AM 40.1011 -75.4167 226° Southwest 377 434 18,000  Level New York Center
09:03AM 40.0242 -75.5200 226° Southwest 377 434 18,000  Level New York Center
09:04AM 39.9644 -75.6053 228° Southwest 367 422 18,000 -540 Level New York Center
09:05AM 39.8931 -75.7167 230° Southwest 367 422 17,000 -1,020 Descending New York Center
09:06AM 39.8453 -75.8133 237° Southwest 362 417 16,000 -1,620 Descending New York Center
09:08AM 39.7333 -76.0167 234° Southwest 331 381 12,300 -1,440 Descending Potomac TRACON
09:09AM 39.6833 -76.1167 237° Southwest 294 338 11,900 -1,260 Descending Potomac TRACON
09:11AM 39.6146 -76.2375 237° Southwest  Level FlightAware Approximate
09:11AM 39.6000 -76.2667 237° Southwest 284 327 8,700  Level Potomac TRACON
09:12AM 39.5667 -76.3667 247° West 280 322 8,000 -480 Descending Potomac TRACON
09:13AM 39.5167 -76.4500 232° Southwest 277 319 7,800 -900 Descending Potomac TRACON
09:14AM 39.4833 -76.5333 243° Southwest 274 315 6,200 -1,380 Descending Potomac TRACON
09:15AM 39.4500 -76.6000 237° Southwest 257 296 5,200 -1,200 Descending Potomac TRACON
09:16AM 39.4000 -76.6833 232° Southwest 256 295 4,000 -600 Descending Potomac TRACON
09:17AM 39.3667 -76.7500 237° Southwest 223 257 4,000 -300 Level Potomac TRACON
09:18AM 39.3333 -76.8167 237° Southwest 218 251 3,500 -540 Descending Potomac TRACON
09:19AM 39.3000 -76.8833 237° Southwest 202 232 3,000 -300 Descending Potomac TRACON
09:20AM 39.2833 -76.9500 252° West 189 217 3,000 -300 Level Potomac TRACON
09:21AM 39.2500 -76.9833 218° Southwest 180 207 2,500 -540 Descending Potomac TRACON
09:22AM 39.2167 -76.9500 142° Southeast 171 197 2,000 -300 Descending Potomac TRACON
09:23AM 39.1833 -76.9000 131° Southeast 169 194 2,000  Level Potomac TRACON
09:24AM 39.1833 -76.8500 90° East 165 190 2,000 -180 Level Potomac TRACON
09:25AM 39.1833 -76.8000 90° East 165 190 1,700 -540 Descending Potomac TRACON
09:26AM 39.1833 -76.7500 90° East 124 143 1,000 -720 Descending Potomac TRACON
09:27AM 39.1833 -76.7000 90° East 124 143 300 -720 Descending Potomac TRACON